Temp
11 12 12 12 12 12 12 12 12 12 12 12 10 10 13 13 14 15 19 17 19 24 27 27 27 26 27 27 28 27 27 29 29 28 29 30 30 31 30 31 30 30 30 31 31 30 30 34 34 32 33 33 33 33
11 11 12 12 12 12 12 12 12 12 12 12 9 10 10 13 13 13 19 17 16 19 25 22 23 23 24 26 28 28 28 27 29 28 30 30 30 30 29 29 31 30 31 30 30 31 32 31 32 33 33 32 32 31
10 11 11 12 12 12 12 12 11 11 12 11 10 9 9 9 11 12 15 16 18 21 25 25 26 24 23 23 25 26 28 28 27 28 27 28 27 29 28 29 29 31 31 30 29 30 31 32 32 32 33 31 31 30
9 9 10 12 12 12 12 12 11 11 11 10 10 9 9 9 10 11 16 16 17 21 23 26 24 24 23 24 24 24 26 26 27 26 26 27 27 29 28 29 28 29 29 28 28 29 30 30 31 31 29 29 29 30
8 9 9 10 11 11 11 11 12 11 11 11 10 9 9 9 10 11 14 16 16 19 23 26 26 25 24 24 23 24 25 26 26 26 26 26 28 28 28 28 27 29 28 28 28 28 28 27 28 28 28 28 29 29
7 8 9 9 10 10 10 11 12 12 11 11 11 10 10 11 11 14 20 17 16 16 20 25 26 25 25 24 24 24 25 25 25 25 26 27 28 27 26 26 28 28 27 27 26 27 28 28 28 29 29 29 29 29
6 7 8 8 9 9 10 10 11 11 11 11 11 10 12 13 12 17 18 15 14 16 21 24 27 26 25 25 25 26 26 26 25 25 26 26 26 25 25 25 25 23 23 23 23 24 24 25 26 28 28 28 28 29
6 6 7 7 8 9 10 10 10 10 11 11 11 10 12 13 13 15 14 13 13 17 20 23 26 26 26 26 26 27 26 26 25 25 25 25 25 25 24 22 21 21 20 20 21 23 22 24 25 26 28 28 27 28
6 6 6 6 7 8 8 9 10 11 11 11 11 11 11 12 17 15 13 13 14 16 21 24 26 26 26 26 27 26 25 25 26 24 24 23 23 22 20 20 19 19 16 16 18 20 23 21 20 23 27 28 28 28
6 7 7 7 7 7 8 9 10 11 11 11 11 15 16 16 13 12 13 14 16 16 19 21 26 26 26 27 26 25 25 24 22 24 23 22 24 21 20 18 15 16 14 16 18 21 21 19 17 22 27 28 29 29
7 7 7 7 7 7 8 10 10 10 11 12 18 19 16 13 15 18 17 16 18 19 21 23 25 25 26 24 25 25 24 24 21 23 22 21 23 21 21 19 19 17 15 18 19 20 19 18 19 19 21 21 26 27
6 7 7 7 7 8 9 9 10 10 11 13 14 14 16 18 20 18 17 18 19 22 23 24 25 25 25 24 24 22 22 22 22 24 21 22 21 21 20 21 21 20 18 16 17 19 19 20 19 18 18 22 23 23
6 7 7 7 7 8 8 9 10 10 11 14 15 18 19 19 15 18 20 21 21 23 24 24 24 24 23 23 23 22 22 22 24 23 22 21 20 20 20 20 20 21 21 21 17 17 19 21 17 17 21 22 23 23
7 7 7 7 7 8 9 9 10 10 11 16 18 14 18 19 21 23 24 24 24 25 25 26 25 24 25 22 23 21 24 23 22 22 21 19 19 19 19 19 18 18 18 20 21 19 19 21 21 21 22 22 23 23
7 8 8 9 9 10 10 10 9 9 11 16 18 16 20 23 24 25 25 25 25 26 26 25 25 25 23 22 23 23 22 22 23 20 21 20 20 19 18 18 18 18 18 19 19 20 20 19 21 22 22 22 22 22
8 8 8 10 10 10 10 9 9 9 12 16 17 19 22 23 24 25 25 25 25 25 25 24 23 23 22 23 22 22 23 22 21 21 21 21 19 18 17 17 17 17 17 18 18 18 18 19 20 21 22 22 22 22
8 8 8 8 9 9 9 9 9 9 11 12 18 22 22 22 22 23 22 21 23 23 23 22 21 22 23 23 22 22 21 22 21 21 21 18 17 17 17 16 16 17 17 16 16 16 16 16 18 19 21 21 22 21
8 8 8 8 8 8 9 9 11 12 12 17 19 21 22 22 22 23 24 24 23 22 23 22 23 22 22 22 22 22 23 22 22 21 20 20 19 18 17 17 16 16 16 14 13 14 15 15 17 20 21 22 21 21
7 7 8 8 8 8 9 10 9 12 15 20 21 20 22 21 21 21 23 23 23 23 22 22 22 22 22 22 22 24 23 22 22 21 21 19 19 20 19 18 16 14 14 12 12 14 15 15 17 19 20 22 22 22
8 8 8 8 7 9 11 10 10 14 17 18 19 19 20 19 20 23 23 23 23 22 20 21 23 24 22 24 24 23 22 22 21 21 21 21 21 20 16 15 15 13 12 12 14 14 15 16 17 18 20 21 20 21
7 8 8 8 8 8 11 11 12 16 17 17 18 17 18 20 21 21 20 20 20 20 21 23 21 22 23 23 22 22 22 21 21 20 21 21 21 15 17 13 11 12 11 13 15 15 15 16 16 18 19 19 19 19
7 8 8 8 9 9 10 12 12 14 16 19 20 20 18 19 19 19 19 19 21 23 24 21 24 24 22 21 21 20 20 19 20 20 20 21 15 17 12 11 12 12 14 14 16 16 17 17 17 17 17 18 18 18
7 8 9 9 10 12 13 14 14 16 17 17 19 19 21 22 22 22 19 22 23 25 24 25 23 22 22 20 20 20 20 19 21 20 21 20 16 12 11 11 12 13 14 15 15 16 16 16 16 17 17 18 19 18
8 9 10 12 12 13 15 13 13 16 16 17 18 19 20 21 22 21 22 24 23 25 24 22 22 22 22 21 21 22 21 21 22 21 21 21 18 12 12 12 12 13 13 14 14 15 16 16 16 17 16 18 18 19
9 10 11 9 12 14 16 16 14 14 14 16 17 19 21 20 20 22 23 24 23 25 24 22 22 23 22 23 23 23 21 22 22 22 21 20 16 15 14 13 13 13 14 15 15 16 17 16 15 17 17 17 16 17
9 12 13 16 14 15 16 15 15 15 15 15 17 20 23 21 22 22 23 23 24 25 24 23 23 23 23 24 23 24 23 22 22 23 21 20 20 20 18 15 15 16 14 15 16 16 16 16 15 16 16 15 16 17
10 13 14 16 13 13 13 13 13 14 15 16 18 21 21 21 22 23 24 25 25 25 24 23 23 24 24 24 23 23 22 22 21 21 21 20 20 19 19 18 18 15 14 14 13 14 14 14 14 15 15 14 15 15
12 13 14 14 12 14 14 14 14 15 17 19 20 21 22 22 22 22 25 24 24 23 23 23 23 24 24 23 23 23 23 23 23 23 22 22 20 20 19 17 16 15 15 14 14 14 14 12 11 11 12 12 12 11
12 14 15 15 13 13 13 14 16 17 18 17 18 19 22 23 24 24 24 24 24 24 24 24 23 24 24 23 23 23 23 23 23 23 23 23 23 21 20 20 18 17 17 17 16 15 16 17 14 12 11 11 11 11
15 17 15 14 14 14 16 17 19 18 18 18 21 22 23 24 24 24 23 23 24 24 24 24 24 24 24 24 24 23 23 24 24 24 24 23 22 21 21 20 20 20 19 19 19 16 16 16 16 16 15 14 13 12
15 14 13 14 16 18 19 20 20 21 21 22 23 22 22 22 24 24 24 24 24 24 24 25 24 24 24 24 23 23 24 24 23 23 23 22 21 21 21 21 20 20 20 20 20 20 20 19 19 19 19 18 18 16
16 16 16 15 15 19 20 20 21 21 22 22 22 23 23 21 22 24 24 23 24 24 24 24 25 25 24 24 24 23 23 24 23 22 22 22 21 21 21 21 20 20 20 20 20 20 20 19 19 18 18 18 17 17
13 12 13 16 18 19 21 20 19 21 22 22 22 23 23 21 22 22 23 23 24 24 25 24 24 24 24 24 24 24 23 23 23 22 21 21 21 21 21 21 21 20 20 20 20 19 19 19 19 19 18 18 18 17
Height
832 832 832 832 831 829 828 826 823 821 819 817 814 812 808 805 802 799 797 797 795 779 766 767 768 768 764 766 765 766 769 760 760 769 762 755 755 747 751 745 753 757 757 751 743 751 758 707 711 732 717 711 716 717
828 828 828 828 828 828 827 825 823 821 819 817 815 813 810 807 804 801 796 797 796 792 772 776 774 773 772 768 763 759 762 765 756 761 753 751 754 746 753 763 734 752 740 747 742 737 718 724 721 714 714 715 717 719
824 824 824 825 825 825 825 824 822 821 818 816 815 813 811 808 804 802 800 798 794 785 769 768 764 767 770 771 771 770 761 761 765 762 764 760 768 755 763 751 746 735 729 739 739 731 725 719 714 714 711 716 720 725
821 821 821 820 821 821 821 821 821 819 818 816 814 812 810 808 804 802 802 800 796 787 774 760 767 766 768 769 772 771 768 769 767 767 767 763 763 747 753 747 749 741 736 739 739 730 727 723 719 717 720 721 726 726
819 819 818 817 817 817 817 817 817 817 815 814 813 811 809 807 804 802 802 800 799 796 778 762 760 763 767 768 771 772 771 768 767 767 765 764 752 752 747 746 746 735 739 741 738 728 730 730 726 725 726 724 723 723
816 816 815 814 813 814 814 814 814 813 813 812 811 809 806 805 802 803 792 798 799 797 787 764 756 762 764 768 770 770 769 767 766 764 758 751 745 753 754 750 736 732 734 735 737 730 726 724 723 721 719 717 718 718
814 813 812 812 811 810 810 810 810 810 809 809 808 805 803 801 801 799 796 799 798 798 786 767 751 756 761 764 764 763 762 761 762 760 755 753 750 751 751 754 743 751 750 748 744 739 735 731 725 717 713 713 710 709
811 811 810 810 809 807 807 807 808 807 807 806 806 803 801 800 800 798 799 799 799 795 787 772 751 754 757 755 753 749 754 753 756 757 751 749 749 747 753 753 755 755 757 752 745 739 734 728 722 716 710 707 707 705
810 809 808 807 806 805 805 805 805 805 804 804 803 802 802 800 794 798 798 799 799 798 780 762 749 749 749 749 747 750 754 756 743 752 749 755 750 755 760 760 760 760 762 759 749 740 730 728 727 713 701 698 696 692
809 807 806 805 804 803 803 803 803 803 803 802 802 798 794 795 797 799 799 798 795 793 786 769 745 749 748 743 746 751 750 755 761 749 751 755 743 752 758 762 765 762 761 755 745 732 728 729 727 700 690 684 682 683
807 805 804 804 802 801 801 800 801 801 801 801 792 787 794 796 795 788 789 790 784 777 767 758 748 748 747 755 749 746 753 748 761 750 753 754 742 748 750 757 755 757 756 747 743 736 733 730 725 717 699 673 680 684
805 803 802 801 800 799 799 798 799 800 799 798 797 795 794 789 781 785 787 780 777 758 754 752 749 750 747 754 753 759 760 757 757 740 753 747 744 746 751 748 746 745 747 746 742 734 730 725 723 717 698 700 699 698
802 801 799 798 798 796 796 796 797 798 799 798 795 787 782 779 791 782 769 762 761 750 744 749 752 749 753 754 753 757 758 753 737 741 743 742 746 747 747 747 743 740 737 734 736 735 728 723 718 716 711 701 701 700
800 798 796 795 793 793 794 794 796 798 799 792 784 794 779 772 762 748 743 739 738 735 738 738 742 746 742 751 749 758 743 744 745 739 745 748 748 747 747 747 745 742 740 733 726 727 726 719 714 711 706 703 701 699
796 794 793 792 791 790 791 793 795 797 798 787 778 779 762 747 739 737 734 736 737 735 735 739 741 740 743 752 743 742 747 741 734 748 744 743 743 746 746 744 741 739 736 732 727 722 719 720 714 708 704 702 700 699
795 793 793 790 788 788 790 792 794 796 794 784 776 762 746 744 737 734 735 736 733 734 737 738 744 746 747 741 747 747 738 738 742 740 740 740 743 745 746 743 740 737 734 730 726 722 719 714 711 707 703 701 698 696
794 793 793 791 788 788 790 792 793 793 791 785 764 750 749 746 744 740 739 741 740 741 746 746 750 745 738 739 741 737 743 736 737 737 736 745 747 744 741 740 738 733 730 727 724 721 719 716 712 707 701 699 696 696
794 792 792 792 791 791 791 791 790 787 782 768 756 745 741 742 742 739 736 737 739 744 740 745 737 744 743 739 737 734 730 731 733 736 739 739 738 736 735 733 731 730 727 725 722 717 716 715 709 703 697 694 693 693
792 791 790 791 791 791 790 789 789 779 767 750 744 747 742 743 745 744 738 738 737 738 738 738 739 736 735 734 734 725 727 731 733 734 733 733 730 727 725 723 724 724 721 720 716 712 710 708 705 699 696 690 688 687
788 786 786 788 790 789 785 783 784 774 758 748 745 743 742 743 739 732 731 734 736 738 743 741 729 724 728 722 725 728 731 734 735 731 729 726 723 721 723 724 720 718 716 712 708 707 705 703 700 697 694 688 691 688
785 783 783 785 788 788 784 779 775 763 754 750 743 746 742 734 732 730 734 733 736 737 734 723 725 720 724 727 729 731 733 735 734 734 730 724 721 724 720 721 717 714 711 707 704 702 702 700 698 695 693 692 691 690
785 783 783 784 784 785 781 774 771 764 756 742 738 736 739 735 732 733 731 735 728 719 715 719 715 717 726 731 732 735 735 737 735 732 729 723 728 725 724 720 715 710 707 705 702 699 697 696 696 695 694 692 690 690
783 782 781 781 780 774 769 764 764 756 748 747 739 736 725 721 719 718 729 721 715 710 710 710 717 722 724 731 733 734 735 735 729 729 725 725 730 730 724 719 715 710 707 703 701 699 697 695 694 694 692 691 689 690
782 780 777 772 770 764 758 760 760 751 747 742 740 734 726 722 715 720 716 708 705 703 708 715 720 722 726 729 730 729 730 728 725 724 723 724 728 730 729 725 719 715 710 707 703 700 698 696 695 695 695 694 694 694
780 775 772 772 762 757 747 746 752 753 749 745 741 727 720 717 722 713 708 699 701 700 705 714 716 717 720 722 723 722 727 725 723 722 723 724 727 724 725 723 720 717 713 710 706 703 701 701 701 698 699 699 701 700
772 764 761 746 750 746 741 745 741 745 745 744 734 720 708 717 711 707 701 699 697 697 702 708 711 713 715 716 718 718 720 723 722 721 724 725 723 721 720 719 719 718 716 713 710 708 707 706 707 706 704 706 706 706
764 753 748 744 750 749 748 747 744 742 739 738 726 712 713 712 709 701 695 695 695 698 700 704 708 710 711 715 718 721 723 723 724 725 726 725 724 725 724 723 723 725 721 719 717 715 715 714 713 711 711 712 713 714
755 748 742 743 747 745 744 743 741 735 730 719 713 707 704 703 706 697 693 697 700 701 702 704 707 709 709 713 717 720 719 719 719 719 722 722 725 726 726 728 729 729 727 725 724 722 721 721 720 720 720 721 722 723
749 741 739 738 743 743 740 736 730 725 718 721 716 711 699 695 693 692 696 699 700 700 702 704 707 708 710 714 717 719 717 717 719 720 720 720 721 726 727 726 729 730 730 729 728 727 726 726 729 729 728 729 730 732
734 730 735 736 734 731 724 723 715 714 715 712 707 700 697 694 693 695 697 699 698 699 700 702 705 707 709 711 714 716 716 714 714 715 719 721 724 726 727 728 728 727 728 729 728 731 731 732 733 733 735 737 739 740
729 734 735 730 723 714 709 709 707 706 705 702 699 701 700 696 693 692 694 696 696 697 697 698 700 705 705 707 712 716 715 715 718 721 722 725 728 729 729 729 729 730 729 728 728 728 730 730 731 732 734 735 737 741
724 723 722 722 718 707 703 702 699 698 698 699 699 696 694 697 696 690 690 693 694 694 695 695 694 698 701 705 707 710 713 714 720 724 726 727 731 732 731 732 732 732 732 733 733 734 734 735 738 740 742 743 744 746
728 728 728 720 709 701 694 698 700 695 690 691 690 688 688 696 694 688 690 692 692 691 691 694 694 698 700 703 704 708 711 714 719 724 727 730 732 732 733 734 735 736 736 737 738 739 739 741 742 744 745 747 749 751
Wind_Speed
15 15 13 11 10 9 10 11 12 12 13 14 14 17 19 18 17 9 4 6 6 5 9 6 8 8 5 5 8 5 3 9 7 8 10 10 10 11 12 13 14 14 14 13 13 17 20 10 12 13 12 3 6 5
12 14 15 15 14 12 10 10 11 12 13 12 12 13 17 16 14 8 4 5 6 6 6 9 9 9 10 13 9 3 7 4 5 4 4 5 9 7 10 12 12 14 14 12 16 14 11 5 13 10 10 11 8 6
12 13 13 14 14 14 12 11 10 11 12 12 11 12 14 17 16 9 6 7 6 5 8 9 4 4 14 13 6 5 3 3 4 4 6 6 8 8 10 10 14 14 13 14 16 17 20 19 9 15 12 5 7 8
10 10 11 12 13 14 14 12 10 10 10 11 12 11 13 15 15 7 5 5 8 6 5 6 4 2 3 10 12 13 7 5 6 3 6 7 8 7 10 12 12 12 16 13 17 17 18 17 16 14 4 5 9 13
8 9 10 10 11 12 14 13 11 11 11 10 13 12 13 15 15 6 6 4 4 7 5 4 1 8 7 7 7 8 9 8 6 7 7 9 9 10 10 12 13 13 15 12 13 15 15 15 15 15 11 14 15 15
9 9 10 10 11 12 13 13 13 12 11 10 13 15 14 17 10 6 5 4 2 6 4 3 5 6 10 9 8 8 8 7 6 7 6 7 12 10 7 10 12 15 17 18 14 17 18 19 18 22 20 16 17 20
9 10 10 10 10 9 10 10 10 11 10 10 13 16 14 10 4 7 6 4 2 5 4 4 4 7 12 10 10 9 11 5 6 7 9 10 10 6 11 13 7 12 16 18 20 21 22 22 20 21 19 20 20 18
9 11 9 9 9 8 9 8 9 9 9 10 13 14 8 0 6 5 2 2 3 6 4 4 3 5 14 8 9 5 5 6 6 7 7 7 7 5 6 7 10 14 16 16 17 20 22 21 23 23 20 18 19 20
8 10 12 9 8 8 8 9 9 8 9 8 12 6 2 3 2 2 1 3 4 6 4 3 7 4 5 7 2 3 2 7 3 6 7 3 6 4 4 10 12 13 10 16 23 22 22 12 23 27 22 21 21 20
8 9 11 11 8 8 7 7 7 7 7 8 4 7 3 2 3 4 1 2 3 3 4 5 3 3 2 1 3 3 2 3 5 6 2 5 7 8 3 1 5 9 11 15 21 15 17 10 18 26 18 15 15 12
8 9 10 11 9 8 8 5 6 5 4 2 5 1 5 5 5 3 2 3 3 4 5 5 4 5 4 5 5 2 1 4 3 4 3 4 4 5 4 5 6 8 11 13 11 17 15 12 16 17 18 12 11 6
9 9 10 10 9 8 7 6 5 5 3 3 5 4 3 4 4 3 3 3 5 3 6 7 5 3 1 0 4 2 3 3 6 5 3 3 5 4 4 9 9 9 11 13 17 15 15 14 15 14 10 10 9 7
9 10 11 12 10 9 7 4 7 8 3 4 5 4 3 2 1 5 7 5 4 5 6 6 6 3 4 3 3 2 4 5 4 4 3 3 5 4 7 9 14 16 17 13 11 15 20 17 7 15 16 16 11 12
10 11 13 14 12 10 7 4 7 5 2 4 5 2 5 6 6 5 8 4 5 3 7 5 4 4 3 4 2 4 3 3 4 4 1 4 4 7 11 13 13 13 15 17 18 9 16 15 16 16 15 14 12 12
11 13 7 7 8 7 8 8 9 6 2 4 4 4 8 8 5 4 5 2 4 4 4 2 5 4 3 3 4 3 3 5 2 4 3 5 11 11 11 11 11 12 12 13 16 16 11 17 16 16 15 15 13 14
12 4 6 10 4 6 7 11 9 4 3 4 5 7 7 6 5 7 7 7 4 4 3 4 3 3 4 3 4 6 4 3 3 4 6 8 8 8 9 11 12 12 13 17 17 19 21 17 16 18 15 15 15 12
5 2 7 10 3 5 15 5 4 4 3 3 5 9 9 8 7 7 4 2 2 2 5 3 4 2 3 3 4 3 4 7 8 8 6 6 9 11 12 12 15 16 18 19 20 19 19 20 19 22 13 14 14 13
2 3 5 6 1 6 1 2 3 3 6 7 9 8 6 5 6 7 5 4 4 4 4 4 3 5 3 5 5 4 3 4 4 5 6 8 10 13 15 13 15 17 20 19 20 20 17 16 15 12 17 17 10 14
10 12 10 5 2 1 2 4 3 3 8 10 7 8 6 6 7 10 7 7 6 6 3 4 4 4 2 2 7 7 5 4 5 6 7 9 14 10 17 15 13 14 17 17 18 15 14 15 16 15 16 16 8 11
11 12 8 9 8 3 3 2 4 4 5 3 5 6 5 5 8 8 7 8 7 6 5 4 6 5 4 3 4 3 2 2 4 8 8 9 17 16 13 16 15 16 16 17 15 12 13 13 13 15 14 10 8 10
9 2 2 10 7 4 3 1 4 4 4 4 3 2 4 5 8 7 8 4 5 4 4 7 3 5 5 3 2 2 1 3 6 7 10 11 16 14 21 22 16 13 10 9 5 8 9 9 9 12 7 9 8 7
4 3 4 5 4 4 4 8 3 4 4 5 6 7 5 6 5 5 4 7 7 8 8 5 4 3 4 5 5 4 2 5 9 12 14 16 10 13 11 17 13 5 7 6 6 6 7 6 7 6 8 9 6 1
6 3 3 6 4 4 4 4 4 3 4 2 3 3 5 5 4 4 3 6 7 8 4 3 3 5 6 10 6 5 5 7 8 6 10 11 17 23 19 17 15 10 5 5 6 5 5 4 2 3 1 1 1 3
6 2 3 5 6 4 4 5 3 4 4 3 3 5 7 3 3 4 6 8 5 4 4 6 8 7 8 8 6 6 6 6 9 5 7 11 8 10 15 15 15 18 18 11 8 4 4 4 4 4 4 5 7 6
2 4 4 6 5 4 4 4 5 3 3 4 5 5 4 4 3 5 7 5 4 5 5 7 8 8 8 7 7 7 5 5 7 5 9 10 7 7 13 12 12 11 17 16 15 9 9 11 10 6 7 8 12 8
4 4 4 6 3 4 4 3 5 6 4 2 4 5 5 3 4 3 3 2 3 4 6 8 9 8 7 7 5 4 6 3 6 7 8 8 9 12 4 3 5 10 15 10 8 12 13 13 13 10 12 11 11 13
4 6 5 4 1 0 2 2 2 3 5 5 4 4 4 5 3 2 4 3 2 2 5 12 13 10 7 7 5 3 1 1 3 4 5 4 8 9 13 12 11 16 18 19 17 15 14 14 13 13 15 16 14 13
4 4 5 2 2 3 3 2 2 3 4 4 4 4 2 2 2 2 6 5 5 4 8 13 14 12 10 10 8 8 7 4 4 5 6 8 9 7 11 13 12 13 15 17 15 18 22 19 19 20 18 17 17 20
4 4 5 6 5 4 5 5 4 4 3 1 3 3 1 2 2 3 8 3 3 7 9 11 13 12 9 8 8 6 4 3 7 5 4 5 5 9 6 8 11 5 7 11 16 15 14 19 23 26 27 26 24 25
8 6 4 4 4 4 6 8 7 6 5 5 7 6 5 4 4 3 3 4 5 7 9 12 14 13 11 11 11 10 7 4 3 9 5 5 6 7 7 5 4 5 8 7 9 12 13 17 16 18 19 20 23 21
2 4 3 5 8 10 10 10 10 11 9 10 6 6 7 3 6 7 7 6 7 8 11 12 15 16 13 11 10 9 7 5 9 10 10 11 10 9 7 6 6 6 5 6 10 13 13 12 12 13 14 13 16 22
3 7 5 3 4 7 8 8 8 10 10 10 9 10 7 3 5 6 9 8 8 9 9 9 12 15 14 11 13 14 9 12 11 10 9 10 9 8 9 10 9 8 8 9 9 10 11 14 15 16 16 17 18 19
3 1 3 5 5 4 5 4 3 4 6 8 9 10 9 7 6 0 5 7 9 12 13 14 10 9 10 9 12 14 13 14 14 12 12 12 8 6 10 11 12 12 12 12 11 11 10 11 11 12 12 13 13 13
Wind_Direction
257 263 271 282 298 317 334 348 354 356 356 356 359 359 4 6 10 10 343 360 325 291 300 317 286 273 238 246 273 86 253 213 261 245 261 264 257 259 264 266 265 273 271 262 249 257 266 285 277 251 282 340 256 321
267 262 265 268 275 286 305 321 338 349 353 352 354 353 354 360 7 15 302 347 316 262 322 317 277 277 262 274 302 141 304 319 344 293 260 297 284 283 267 274 272 261 257 276 285 296 320 338 307 301 301 319 303 302
274 270 271 270 270 274 279 292 311 329 344 347 346 344 344 347 352 4 326 337 290 258 251 231 197 230 228 232 240 275 171 298 253 343 307 295 280 293 277 279 288 273 267 277 281 276 289 298 305 310 276 265 329 307
285 284 281 274 271 268 269 276 290 305 326 342 339 334 335 335 338 356 314 333 304 292 278 114 149 174 161 195 223 241 302 247 282 289 275 272 277 279 276 292 291 290 304 289 285 283 283 282 295 293 258 288 286 280
292 293 288 281 275 271 267 266 275 288 302 318 330 325 323 324 325 311 273 272 332 326 327 336 211 179 176 167 191 213 244 261 267 259 245 255 269 278 272 272 271 271 278 274 280 304 306 298 303 298 274 269 274 282
294 287 290 289 282 280 273 268 266 274 285 303 315 317 314 315 312 276 210 185 287 335 280 267 93 182 190 186 208 230 248 255 256 269 269 267 256 260 265 274 296 331 344 343 318 318 303 297 280 278 272 274 274 270
319 299 281 289 288 285 277 269 266 271 277 293 309 316 325 309 235 287 5 34 329 311 259 264 193 154 187 198 219 228 225 237 259 277 250 257 271 250 263 267 339 340 326 319 313 309 294 285 285 278 274 271 276 281
334 327 305 281 291 290 281 279 277 269 275 284 309 323 335 266 208 225 216 289 328 273 260 266 206 173 183 225 222 180 253 222 219 245 275 267 294 235 263 21 337 333 328 308 309 301 299 289 281 269 269 269 267 263
332 330 324 306 297 298 291 281 275 269 265 286 313 306 278 244 283 63 325 272 259 276 290 247 265 130 171 244 280 243 223 276 336 256 255 232 257 235 344 332 336 340 330 308 306 293 284 319 323 295 253 244 251 255
324 328 325 318 304 307 297 294 277 271 266 296 274 212 171 114 172 134 140 218 214 211 231 258 352 236 221 200 263 341 152 264 230 211 195 245 259 116 88 357 294 310 301 309 327 318 329 317 254 274 277 266 259 262
316 322 321 316 302 298 298 287 267 259 267 236 235 56 88 168 225 211 254 242 187 225 201 241 290 309 128 284 312 178 239 222 241 207 237 218 201 156 183 260 275 283 290 311 317 331 333 320 313 331 318 299 19 325
311 319 322 314 302 283 288 275 232 210 229 293 306 288 243 225 223 226 229 190 232 252 159 209 180 220 10 254 250 144 255 226 247 142 239 244 121 92 341 316 320 301 291 299 309 317 318 323 335 315 311 336 359 326
309 314 317 312 300 270 277 251 212 211 277 257 230 231 199 192 293 218 192 195 213 195 157 193 188 242 140 249 241 242 231 234 326 236 226 63 112 11 333 326 314 313 304 292 274 299 301 312 296 307 305 317 349 339
312 318 315 305 289 248 239 223 200 195 254 251 206 255 222 189 237 208 248 65 82 200 168 219 177 243 195 188 237 245 253 284 250 236 102 92 20 342 341 313 307 307 304 304 306 295 296 294 300 299 300 308 330 330
325 324 322 335 306 240 224 209 190 179 225 251 230 242 217 254 293 288 299 333 185 262 276 191 254 253 167 224 223 269 236 238 232 28 4 8 1 351 328 319 318 323 314 309 309 310 297 294 291 294 296 314 314 310
330 339 351 335 307 217 206 171 168 186 244 243 233 254 248 255 262 208 206 228 220 205 350 250 271 272 225 232 205 229 265 327 356 352 354 338 345 319 318 317 314 311 315 315 308 301 306 290 284 287 300 298 296 297
334 56 6 14 45 147 157 135 163 197 237 241 252 236 259 279 288 285 321 30 235 9 245 203 226 191 281 246 243 357 307 327 350 325 348 347 303 304 297 303 300 316 308 313 301 293 294 297 293 297 283 289 292 307
260 326 322 355 11 143 167 209 225 226 233 243 253 255 247 259 287 286 283 252 264 225 275 295 293 235 245 284 312 281 306 292 332 353 308 298 295 294 294 290 298 297 308 312 297 284 281 280 277 266 266 265 288 284
280 289 294 291 242 298 244 204 211 259 235 252 238 258 272 276 270 270 265 265 254 261 306 292 248 252 271 303 292 309 345 322 332 324 307 288 277 324 320 312 309 293 298 293 288 272 270 268 271 287 299 294 284 292
289 285 268 226 194 232 218 212 223 272 269 280 275 272 232 240 244 242 241 224 230 217 228 232 256 309 269 308 1 319 339 335 301 301 325 327 330 333 13 343 319 309 295 292 278 258 259 260 258 248 264 287 302 295
312 239 226 175 192 251 293 260 240 245 281 275 284 307 270 275 274 249 235 231 214 223 239 242 234 222 52 26 202 137 132 311 324 336 317 322 328 28 346 335 317 307 296 280 272 257 243 254 260 281 298 290 290 273
267 275 158 181 211 211 249 225 241 282 253 294 292 253 232 246 245 224 215 211 223 233 225 230 232 127 143 194 162 213 357 308 305 312 324 330 37 360 347 328 322 303 294 261 265 266 264 254 253 284 273 265 256 300
303 218 219 194 239 216 253 211 239 249 256 278 269 270 243 231 208 157 208 222 239 252 260 180 148 192 161 163 188 217 261 290 284 335 337 15 33 13 348 337 341 346 348 345 331 308 300 309 292 288 297 294 30 125
221 251 225 211 214 250 207 193 235 256 219 226 258 246 260 280 175 226 242 240 219 187 169 148 177 167 169 173 205 218 239 299 307 295 17 355 54 35 6 358 2 14 360 358 350 3 20 57 56 72 69 72 64 103
172 226 213 230 226 240 253 195 189 208 241 232 236 243 223 180 217 219 230 208 186 172 175 174 197 181 188 188 210 207 166 286 342 325 38 3 130 74 0 336 339 10 6 1 7 22 33 70 50 54 88 89 109 85
214 218 236 206 202 249 183 261 198 196 196 243 257 235 214 218 241 233 153 172 172 178 177 182 191 181 193 199 198 190 135 30 329 20 30 6 1 3 2 265 331 15 355 350 13 48 48 56 66 63 82 77 96 118
241 225 219 217 179 48 267 246 265 252 201 215 238 214 206 228 213 101 127 85 44 127 181 179 187 185 181 172 170 131 150 285 64 32 40 20 50 40 34 26 36 54 63 63 62 59 62 60 58 57 72 70 86 101
258 276 248 162 216 228 250 242 241 241 223 253 258 229 210 213 116 6 101 84 76 120 157 174 178 184 191 156 160 175 199 197 177 160 159 105 79 53 77 78 105 103 66 54 64 82 80 75 73 73 74 82 88 90
240 247 243 228 221 214 221 222 218 234 223 238 273 286 50 45 188 113 99 107 159 160 166 174 178 189 166 153 163 191 217 199 94 79 56 64 81 90 66 108 130 107 59 72 58 66 87 91 91 90 88 87 89 96
237 214 225 226 225 233 217 203 240 214 244 260 262 307 304 262 244 124 199 208 226 202 187 185 184 189 181 181 177 190 214 238 261 104 83 84 80 78 96 104 82 111 127 107 95 110 116 113 121 125 113 110 108 106
176 152 233 257 263 253 245 230 231 242 234 247 256 239 245 282 291 261 214 233 208 204 197 195 178 190 198 193 163 198 196 205 88 94 98 95 88 79 78 89 103 101 89 79 100 105 104 92 101 107 110 105 120 142
259 220 240 257 282 271 237 249 243 235 236 241 244 252 259 304 298 287 184 193 203 205 209 227 186 185 199 198 189 195 184 151 147 142 145 107 102 101 94 89 90 90 99 105 108 107 105 110 110 107 104 102 106 109
213 256 255 260 252 239 228 193 258 257 224 221 226 230 203 194 234 102 153 197 216 212 200 204 200 175 167 201 182 163 175 166 151 146 125 131 129 113 104 93 95 95 95 96 99 104 105 110 110 108 109 113 113 115